User: anonymous   Login
Location: *
(51.1248°S, 108.4023°W)
Time: 19:45:49
(UTC+00:00)
Language:

SKYMED 2 - Orbit

View from above orbital plane
View from above orbital plane
View from above satellite
View from above satellite

Ground track
Ground track

The orbit data is extracted from the following two-line orbital elements,

1 32376U 07059A   21270.48206638  .00000342  00000-0  49485-4 0  9994
2 32376  97.8927  92.9497 0001493  89.0077 271.1320 14.82155395746751
Epoch (UTC): 27 September 2021 11:34:10
Eccentricity: 0.0001493
inclination: 97.8927°
perigee height: 621 km
apogee height: 623 km
right ascension of ascending node: 92.9497°
argument of perigee: 89.0077°
revolutions per day: 14.82155395
mean anomaly at epoch: 271.1320°
orbit number at epoch: 74675

The dashed part of the orbit path shows where the satellite is in the earth's shadow,  

DLR